Regional Weather Roundup
Issued by NWS Wakefield, VA

Home | Current Version | Previous Version | Graphics & Text | Print | Product List | Glossary On
Versions: 1 2 3 4 5 6 7 8 9 10 11 12 13 14 15 16 17 18 19 20 21 22 23 24 25 26 27 28
000
ASUS41 KAKQ 190415
RWRAKQ

REGIONAL WEATHER ROUNDUP
NATIONAL WEATHER SERVICE WAKEFIELD VA
1100 PM EST SAT FEB 18 2017

Note: "fair" indicates few or no clouds below 12,000 feet with no
significant weather and/or obstructions to visibility. * = Denotes
station may not report precipitation (e.g., rain,snow,etc.),
thunder or fog.

VAZ042-051-052>054-056-190500-
NORTHERN VIRGINIA

CITY           SKY/WX    TMP DP  RH WIND       PRES   REMARKS
WASH NATIONAL  CLOUDY    59  35  40 CALM      29.78S
DULLES         CLOUDY    56  34  43 CALM      29.78S
FORT BELVOIR   MOCLDY    53  37  54 CALM      29.78S
QUANTICO       CLOUDY    56  37  49 NW3       29.80R
FREDERICKSBRG* MOCLDY    61  35  38 CALM      29.79R
STAFFORD*      CLOUDY    61  31  33 CALM      29.84R
WARRENTON      CLOUDY    53  30  41 CALM      29.79S
CULPEPER*      CLOUDY    56  35  44 CALM      29.80S
MANASSAS*      CLOUDY    54  36  50 CALM      29.79S
LEESBURG*      CLOUDY    59  34  38 CALM      29.79F
WINCHESTER     MOCLDY    55  32  41 SW7       29.80R
FRONT ROYAL*   CLOUDY    61  32  33 SW7       29.80S
LURAY*         CLOUDY    59  34  38 S7        29.82S
$$

VAZ048-049-060>072-079>083-190500-
CENTRAL AND SOUTH CENTRAL VIRGINIA

CITY           SKY/WX    TMP DP  RH WIND       PRES   REMARKS
RICHMOND       CLOUDY    60  35  39 SE8       29.80F
CHESTERFIELD*  CLOUDY    61  28  29 S6        29.82S
PETERSBURG*    MOCLDY    61  31  32 S3        29.83R
HANOVER        CLOUDY    64  31  28 W3        29.81F
TAPPAHANNOCK*  CLOUDY    65  16  15 S5        29.80F
QUINTON*       FAIR      59  36  42 S3        29.80S
CHARLOTTSVILLE CLOUDY    63  30  28 S6        29.80S
GORDONSVILLE*  CLOUDY    61  32  33 SW3       29.80R
ORANGE*        CLOUDY    59  32  36 CALM      29.81R
LOUISA*        RAIN      66  36  32 W5        29.78F
BUMPASS*       FAIR      60  32  35 SW6       29.80F
FARMVILLE*     DRIZZLE   62  33  33 SW5       29.81R
CREWE*         CLOUDY    64  34  33 SW7       29.82R
FORT PICKETT*  CLOUDY    62  25  24 SW10G17   29.82S
CHASE CITY*    FAIR      60  33  36 S3        29.85R
CLARKSVILLE*   FAIR      61  43  51 SW14G21   29.86R
SOUTH HILL*    CLOUDY    62  38  41 SW10      29.91R
LAWRENCEVILLE* FAIR      63  32  31 SW12G18   29.85R
EMPORIA*       CLOUDY    63  32  31 S6        29.87R
$$

VAZ088>098-190500-
SOUTHEAST VIRGINIA

CITY           SKY/WX    TMP DP  RH WIND       PRES   REMARKS
NORFOLK        MOCLDY    62  37  39 SW10      29.82F
VIRGINIA BEACH CLOUDY    62  35  36 SW10      29.83F
NORFOLK NAVAL  CLOUDY    64  35  34 SW12      29.84F
WEST POINT*    CLOUDY    57  37  46 S3        29.82S
SALUDA*        FAIR      62  36  37 SW3       29.80S
NEWPORT NEWS   CLOUDY    60  37  42 SW9       29.83S
LANGLEY AFB    CLOUDY    62  38  41 S7        29.82F
FORT EUSTIS    CLOUDY    62  37  40 S7        29.80F
WILLIAMSBURG*  CLOUDY    63  37  39 SW3       29.83R
HR EXEC AP*    FAIR      61  37  41 SW9       29.82S
FRANKLIN*      CLOUDY    62  35  37 SW5       29.85S
US460-WAKEFLD  CLOUDY    62  36  37 SW9       29.84S
$$

VAZ020-022-025-037-045-190500-
WEST CENTRAL AND SOUTHWEST VIRGINIA

CITY           SKY/WX    TMP DP  RH WIND       PRES   REMARKS
STAUNTON*      CLOUDY    52  33  48 CALM      29.84R
WAYNESBORO*    CLOUDY    57  30  35 SW6       29.83S
HOT SPRINGS VA CLOUDY    50  27  40 NW13      29.88S
LYNCHBURG      CLOUDY    60  32  34 SW3       29.85R
DANVILLE       CLOUDY    56  40  55 SW8       29.88R
SOUTH BOSTON*  FAIR      60  35  38 SW6       29.86R
MARTINSVILLE   PTCLDY    53  36  52 SW5       29.91R
ROANOKE        MOCLDY    57  34  41 W6        29.87R
BLACKSBURG     CLEAR     46  34  61 CALM      29.91S
DUBLIN*        PTCLDY    46  35  64 SW6       29.91R
MARION*        CLOUDY    49  35  57 W13       29.96R
HILLSVILLE*    CLOUDY    48  33  55 CALM      29.90R
RICHLANDS*     CLOUDY    47  36  64 CALM      29.94S
WISE*          CLOUDY    45  45 100 CALM      29.95F
ABINGDON*      CLOUDY    50  39  67 SW6       29.96R
$$

MDZ021>025-VAZ099-100-190500-
SOUTHERN MARYLAND AND THE DELMARVA PENINSULA

CITY           SKY/WX    TMP DP  RH WIND       PRES   REMARKS
PATUXENT RIVER MOCLDY    61  36  39 W8        29.78S
BAY BRIDGE APT CLOUDY    52  37  58 W5        29.77S
LEONARDTOWN    CLOUDY    61  32  33 W7        29.80S
DOVER          CLOUDY    59  39  47 SW12      29.74R
GEORGETOWN     MOCLDY    58  36  43 SW6       29.77S
EASTON         CLOUDY    55  36  49 CALM      29.81S
CAMBRIDGE      CLOUDY    50  37  62 CALM      29.77F
SALISBURY      CLOUDY    57  38  48 SW8       29.78S
OCEAN CITY     CLOUDY    56  37  49 W8        29.78F
WALLOPS ISLAND CLOUDY    63  36  36 SW9       29.80S
ACCOMACK*      CLOUDY    63  37  37 SW9       29.81S
$$

NCZ012>017-030>032-190500-
NORTH CENTRAL AND EASTERN NORTH CAROLINA

CITY           SKY/WX    TMP DP  RH WIND       PRES   REMARKS
ROANOKE RAPIDS FAIR      63  37  39 SW12      29.87R
RALEIGH        CLOUDY    57  44  62 SW10      29.92R
ELIZABETH CITY CLOUDY    58  43  57 SW12      29.86F
AHOSKIE*         N/A     61  37  40 SW5       29.87R
EDENTON*       CLOUDY    60  44  54 SW7       29.88S
CURRITUCK*     CLOUDY    60  42  52 SW5       29.87S
KILL DEVIL HLS NOT AVBL
MANTEO         CLOUDY    55  44  68 SW8       29.88F
CAPE HATTERAS  CLOUDY    61  51  70 SW13      29.92S HAZE
TARBORO*       NOT AVBL
GOLDSBORO      CLOUDY    62  39  42 SW9       29.90R
WASHINGTON     CLOUDY    61  40  46 SW7       29.91R
GREENVILLE     CLOUDY    63  37  39 SW8       29.93S
NEW BERN       CLOUDY    60  42  51 SW7       29.94R
WILMINGTON     CLOUDY    59  48  67 W6        29.94S
$$

VAZ048-190500-
ELSEWHERE

CITY           SKY/WX    TMP DP  RH WIND       PRES   REMARKS
HARRISBURG PA  CLOUDY    46  36  68 SE7       29.73R
BALTIMORE      CLOUDY    59  32  36 SW5       29.77R
ANNAPOLIS      CLOUDY    47  40  76 NW3       29.77S
ANDREWS AFB    PTCLDY    62  31  31 CALM      29.77S
PHILADELPHIA   CLOUDY    53  36  52 SW10      29.73S
HENDERSON NC   CLOUDY    57  41  55 SW12      29.89R
GREENSBORO     PTCLDY    50  45  83 SW8       29.90R
ROCKY MOUNT    LGT RAIN  60  42  51 SW9       29.90R
$$

VAZ100-190500-
MARINE

STATION/POSITION TIME  TEMP    WIND        PRES    WAVE   SWELL
                       AIR SEA DIR/SP/G            HT/PER HT/PER
                 (UTC) (F)     (DEG/KT/KT) (MB)    (FT/S) (FT/S)
CAPE MAY NJ      0336   53 39  220/ 11/ 14 1007.2R
LEWES DE         0342   63 40  250/  9/ 13 1007.5F
OCEAN-CITY-INLET 0342   47 42  210/  5/  6 1008.8F
WACHAPREAGUE VA  0342   60 45  230/  4/  7 1009.4S
THOMAS POINT MD  0400   54 39  300/  2/  2   N/A
GOOSES REEF MD   0350   51     220/  6/  6 1008.9F
COVE POINT MD    0342   64     260/  9/ 13 1008.8F
SOLOMONS ISLAND  0342   61 43  260/  4/  5   N/A
BISHOPS HEAD MD  0342   51 42  190/  5/  5 1008.8F
PINEY POINT MD   0348          260/  7/  8   N/A
POTOMAC MD       0350   53     240/  8/ 10 1007.6F
CAMBRIDGE MD     0342   56 40  220/  4/  5 1007.6R
LEWISETTA VA     0342   62 43  240/  9/ 10 1008.4F
RAPPAHANNOCK LGT 0348          200/ 14/ 16 1010.1S
YORK RVR RNG VA  0342   62     220/  9/  9 1008.8F
YORKTOWN VA      0342   64 45  230/  7/ 10 1009.1F
JAMESTOWN VA     0350   59     250/  2/  6   N/A
DOMINION TERM VA 0342   57     230/ 11/ 11 1010.2F
KIPTOPEKE VA     0348      46  160/  3/  3   N/A
CHES BAY BRIDGE  0342   63 45  220/ 10/ 11 1009.9F
CAPE HENRY VA    0342   64     200/  7/  9   N/A
WILLOUBY STN VA  0342   63     220/ 16/ 18 1010.7F
S CRANEY ISL VA  0342   62     200/  8/ 10 1010.0F
CAPE HENRY BUOY  0342      46                N/A     2/ 4
OFFSHORE WE BUOY 0351      47                N/A     3/ 5
64NM E OF VA BCH 0350   56 51  230/ 16/ 17 1010.6F   4/ 6   2/10
DUCK PIER NC     0342   59 47  210/ 14/ 16 1010.8F
44100 DUCK FRF   0335      47                N/A     2/ 7
44056 DUCK FRF   0330      47                N/A     1/ 8
OREGON INLET NC  0348          200/ 11/ 13 1011.9F
HATTERAS NC      0342   60 56  230/ 11/ 14 1012.7F
DIAMOND SHLS NC  0350   67 67  230/ 19/ 21 1013.0S   5/ 5   2/11
CAPE LOOKOUT NC  0400   60     220/  9/ 12 1013.7R
$$




USA.gov is the U.S. government's official web portal to all federal, state and local government web resources and services.